IRIDIUM 174

Last updated on Sun Jun 21 2026 00:03:14 GMT+0000 (Coordinated Universal Time)

1 56728U 23068U 26171.41519924 .00000592 00000+0 90019-4 0 9997 2 56728 86.6099 352.3407 0002429 84.2983 275.8511 14.72267531166496
UTC large
Height (km)
Speed (km/s)
/
Latitude / Longitude
Inclination (degrees)
Orbital Period (minutes)
Azimuth
Elevation
Range (km)
Doppler Factor

Next 0 passes for location: London (51.5072 / 0.1276)

No passes found over London.
IRIDIUM 174